Vertical_Velocity
-5 12 -2 -7 -1 -2 1 1 0 0 2 4 -1 -1 -3 -1 6 0 -0 1 -4 4 -11 2 -1 -3 -1 -1 6 -1 -4 10 -1 -2 -3 0 -7 0 -1 -5 8 -8 -3 -10
18 -1 -5 -0 -1 2 1 1 -2 0 1 8 -1 -5 -3 0 -5 -4 -1 2 1 -1 14 2 -1 3 -0 -6 -0 0 5 -4 -1 -3 -4 3 -0 2 -2 2 1 -4 -4 -7
3 -16 3 -1 2 5 -0 1 -0 7 -0 0 5 -6 3 -4 1 -1 1 -2 5 2 -11 4 1 1 -3 -2 -3 -3 -2 3 -5 2 -4 3 3 -1 -2 -2 -2 -6 -2 -2
-6 -11 -1 1 -0 3 3 1 1 1 7 4 4 -8 -2 2 -0 1 -2 -2 -3 2 -5 2 -5 0 1 -1 -4 -3 -4 1 0 1 -5 -4 -3 0 -4 -3 2 5 -7 0
-29 1 4 4 -14 3 4 0 1 0 1 12 -6 9 4 1 2 2 1 -3 11 1 4 -7 -10 -5 1 4 -2 1 -3 0 3 -4 4 -1 -2 -3 3 -3 4 2 -5 -0
-10 -2 7 -12 -4 -2 -3 1 3 4 5 9 -4 7 -5 -1 0 -0 0 -1 -5 9 6 8 -6 -1 -9 13 -2 1 -2 -4 -1 -3 -4 -1 -4 -2 7 5 -3 -1 8 -7
6 -5 -0 9 13 5 8 10 1 12 10 0 0 6 -10 -1 1 1 1 1 -3 -6 6 4 3 2 -7 16 -10 4 1 -1 -4 -3 -2 -1 -3 -4 9 5 -1 1 -6 17
-1 23 2 1 -1 -13 -6 5 5 1 -1 4 0 -1 10 -0 -0 0 -1 1 -6 -4 3 6 -2 10 -8 14 -9 4 2 -3 -2 -1 -1 0 1 -2 -6 -0 -1 -2 -4 -1
6 -6 8 2 -1 15 -9 11 -11 9 -2 8 -2 2 -16 2 3 0 2 -5 3 -4 -0 -2 7 -8 14 -3 -10 -5 11 -0 -0 1 1 1 -3 -4 2 -3 -2 0 -0 -4
-16 9 -3 -4 12 -2 10 -4 14 3 1 -3 -2 -2 3 2 2 0 -1 0 5 -6 -3 1 -1 -2 7 -6 -3 -1 2 -3 0 4 -4 -2 -2 -2 0 -1 -2 -3 -0 4
4 9 -2 13 3 -5 9 2 3 2 6 0 1 4 1 2 -1 1 -0 -2 3 6 -7 2 -1 -1 -4 -4 10 -2 2 -0 -2 -5 2 -1 -1 2 -2 -1 -2 -3 -2 -2
-16 2 -0 -20 -10 -3 2 -7 2 12 -11 -1 8 -4 -3 -1 1 2 1 5 -2 3 7 -6 -3 3 1 -3 2 -4 2 -1 -2 3 4 1 0 -1 -0 -1 -1 1 -1 -3
-13 -3 5 12 29 12 4 -6 -1 -0 8 -7 2 -8 -5 -2 -2 0 -0 -5 2 -3 -0 4 0 -3 4 3 -0 5 -1 1 -0 3 -1 0 -4 -3 3 -4 3 -4 1 -1
10 2 -1 -7 -19 -7 7 0 -1 11 9 -6 -5 -8 -1 -1 -0 -1 -0 6 -0 -1 -1 0 5 3 -8 8 -6 8 -3 2 -0 0 1 -2 1 -2 -2 11 -9 1 5 -1
11 1 7 -4 -1 2 -1 -2 -1 6 -7 16 -14 2 0 -0 1 2 -4 12 -5 -1 -1 -1 1 5 -3 3 2 -6 2 4 1 4 1 -4 -0 -1 -1 9 -2 3 5 9
1 -8 4 -2 -1 2 2 -1 0 -0 -2 1 2 -8 -2 -10 -3 -2 -1 0 3 0 0 -7 -4 8 -2 -4 -2 -1 -0 4 4 3 -2 5 -6 -1 -1 -4 0 2 1 -2
5 3 6 -5 1 4 15 -10 -2 -2 0 0 4 -17 -2 -4 -1 1 0 -3 10 -3 -5 10 -2 -5 7 -0 -6 -3 -1 1 4 0 -6 7 -4 -2 -0 0 0 -3 -0 7
-1 4 3 -4 2 10 -20 -1 -3 1 -2 -1 0 -1 1 -0 1 1 -1 6 -3 2 -8 -0 -1 0 -0 2 -1 3 3 -1 1 -2 -6 1 -1 -1 -1 1 -1 -2 1 2
3 1 -0 5 -0 -4 8 3 5 8 13 4 3 -1 -1 -4 -5 -11 5 -4 0 0 -0 7 -3 6 -5 0 -2 4 4 0 -1 -2 -4 -3 -3 -0 2 -0 0 0 1 -2
3 4 12 3 6 2 16 3 -1 2 10 3 2 1 2 -1 5 -2 -1 5 -1 -2 -1 10 -0 3 -4 0 2 3 1 -2 -4 -2 -2 -0 -4 -3 1 -3 1 -0 -1 4
2 -0 -0 -0 0 5 4 1 -1 17 20 1 1 2 -0 3 10 1 -3 -9 -2 0 -3 2 -0 9 3 -11 10 1 2 -4 2 -1 8 -1 -5 -3 0 -0 0 -3 -0 0
-4 3 -2 6 7 8 1 -2 4 10 5 0 -1 2 -1 2 3 2 -3 0 -0 0 -5 -2 0 4 13 -7 5 1 2 3 -0 -6 4 6 -8 -4 -5 1 3 -5 -0 -1
3 11 8 6 11 5 5 1 3 0 1 1 -2 -1 3 1 1 4 4 -1 -2 6 3 -3 8 -8 5 -0 0 -0 6 0 -0 -5 1 5 -1 -3 -3 -7 1 -1 -3 -0
3 -1 3 2 11 3 2 2 -1 2 1 -0 0 1 1 3 1 0 5 -1 -1 -1 -5 5 12 0 -3 -1 -1 3 2 2 2 4 1 5 2 -2 -1 -0 0 -3 -4 -7
9 1 3 0 1 -3 5 -1 1 1 -2 -3 -1 1 3 -1 -1 -0 4 -2 0 -2 -4 -3 -5 19 -1 2 1 4 6 -2 0 1 4 6 1 -1 -2 2 -5 -7 -0 -5
4 8 6 9 5 5 4 -4 -1 3 -2 -0 4 -7 -2 2 -0 -1 -2 4 1 -0 -5 -3 -1 1 10 7 0 -1 3 2 0 -6 -2 3 4 -0 -2 -0 5 3 4 -4
Height
1509 1507 1501 1498 1500 1509 1514 1503 1505 1502 1498 1506 1504 1500 1495 1495 1497 1503 1506 1509 1517 1523 1528 1532 1536 1539 1543 1547 1551 1554 1555 1559 1561 1563 1565 1568 1571 1573 1575 1576 1579 1579 1582 1582
1498 1503 1489 1499 1504 1499 1500 1505 1501 1495 1500 1505 1499 1497 1489 1489 1490 1493 1497 1501 1507 1516 1521 1528 1532 1536 1539 1543 1548 1551 1554 1555 1557 1560 1563 1565 1567 1570 1572 1574 1574 1576 1578 1580
1495 1489 1489 1496 1497 1501 1496 1505 1508 1503 1497 1496 1501 1492 1484 1481 1483 1487 1489 1493 1497 1506 1516 1521 1527 1531 1535 1539 1544 1548 1551 1553 1554 1559 1561 1564 1565 1566 1568 1570 1571 1573 1574 1577
1491 1485 1488 1492 1496 1491 1498 1505 1501 1505 1508 1509 1493 1512 1478 1473 1479 1480 1483 1485 1490 1495 1506 1516 1523 1526 1530 1534 1539 1544 1547 1550 1552 1553 1556 1559 1562 1563 1564 1566 1568 1570 1571 1573
1490 1487 1488 1496 1493 1486 1496 1501 1496 1497 1504 1496 1488 1498 1479 1473 1476 1471 1475 1479 1479 1486 1494 1505 1514 1522 1526 1531 1535 1539 1543 1547 1550 1551 1554 1555 1557 1560 1561 1563 1564 1567 1567 1569
1482 1481 1483 1486 1483 1486 1488 1495 1496 1494 1494 1508 1488 1495 1481 1489 1473 1471 1473 1478 1481 1481 1487 1496 1505 1514 1522 1526 1531 1536 1538 1540 1545 1547 1549 1551 1553 1556 1558 1560 1561 1563 1565 1565
1484 1481 1485 1486 1489 1485 1489 1497 1506 1512 1508 1506 1483 1488 1478 1467 1467 1471 1472 1475 1480 1482 1484 1490 1499 1506 1516 1519 1525 1530 1532 1536 1540 1543 1544 1547 1549 1552 1554 1555 1556 1559 1562 1565
1487 1499 1480 1480 1482 1483 1490 1490 1496 1526 1527 1507 1481 1489 1490 1465 1466 1468 1470 1472 1479 1481 1481 1484 1491 1499 1506 1513 1521 1526 1529 1532 1535 1538 1540 1542 1545 1549 1551 1553 1554 1556 1560 1562
1476 1481 1465 1474 1478 1476 1479 1489 1473 1490 1474 1482 1476 1468 1466 1456 1459 1464 1465 1469 1472 1479 1480 1483 1487 1495 1502 1509 1515 1520 1525 1528 1531 1535 1538 1539 1541 1544 1548 1549 1550 1552 1555 1558
1461 1478 1461 1470 1476 1477 1477 1470 1492 1485 1512 1515 1490 1487 1474 1465 1460 1461 1464 1464 1465 1474 1479 1482 1486 1491 1498 1505 1510 1516 1521 1524 1528 1532 1535 1537 1539 1540 1544 1546 1547 1548 1551 1553
1461 1467 1467 1469 1477 1478 1482 1486 1479 1481 1498 1519 1500 1493 1486 1451 1459 1459 1462 1464 1464 1467 1475 1480 1483 1488 1494 1500 1505 1511 1515 1520 1524 1528 1531 1534 1537 1539 1541 1542 1544 1545 1548 1550
1463 1462 1475 1466 1465 1469 1468 1476 1479 1488 1493 1476 1474 1472 1451 1452 1450 1456 1459 1461 1466 1468 1471 1478 1483 1486 1490 1496 1501 1506 1510 1515 1519 1523 1526 1529 1533 1536 1538 1539 1540 1542 1544 1546
1463 1472 1478 1472 1465 1466 1471 1469 1463 1462 1461 1475 1487 1521 1466 1458 1456 1458 1461 1467 1467 1470 1472 1475 1479 1483 1487 1492 1497 1501 1506 1510 1514 1519 1522 1525 1529 1531 1534 1535 1537 1538 1539 1541
1459 1460 1468 1471 1464 1458 1474 1473 1465 1462 1469 1468 1465 1473 1454 1457 1454 1457 1460 1463 1466 1469 1472 1473 1475 1479 1484 1488 1493 1498 1501 1505 1510 1513 1517 1520 1523 1527 1530 1532 1531 1533 1535 1538
1460 1464 1459 1454 1448 1451 1456 1462 1468 1471 1466 1471 1460 1460 1454 1454 1452 1457 1462 1461 1465 1468 1470 1472 1474 1476 1481 1485 1489 1493 1498 1502 1505 1509 1512 1514 1518 1522 1525 1527 1526 1528 1531 1535
1455 1463 1455 1463 1452 1453 1460 1454 1457 1459 1463 1464 1461 1459 1450 1453 1452 1456 1459 1460 1462 1463 1467 1470 1473 1473 1475 1481 1485 1489 1492 1497 1501 1504 1509 1511 1513 1517 1520 1521 1522 1525 1528 1531
1451 1453 1455 1467 1452 1454 1464 1455 1450 1454 1452 1454 1465 1454 1448 1447 1451 1454 1457 1460 1460 1463 1465 1464 1468 1472 1474 1476 1480 1483 1487 1494 1497 1500 1506 1508 1509 1513 1516 1517 1519 1522 1525 1528
1445 1448 1449 1459 1450 1477 1443 1433 1442 1451 1449 1448 1449 1449 1450 1450 1452 1456 1459 1461 1463 1464 1464 1462 1464 1467 1471 1474 1477 1482 1486 1489 1494 1497 1502 1505 1507 1510 1512 1514 1516 1520 1523 1525
1438 1441 1454 1462 1461 1448 1446 1447 1448 1450 1463 1465 1463 1456 1458 1457 1457 1461 1463 1465 1464 1462 1459 1458 1460 1463 1467 1471 1474 1478 1483 1485 1490 1492 1496 1501 1504 1507 1509 1511 1514 1518 1521 1524
1443 1443 1450 1455 1466 1472 1458 1459 1459 1456 1468 1476 1474 1471 1469 1465 1461 1452 1462 1463 1461 1460 1458 1456 1457 1460 1464 1468 1471 1474 1478 1481 1485 1488 1491 1496 1500 1504 1506 1509 1512 1515 1520 1523
1455 1456 1462 1460 1465 1454 1465 1464 1462 1473 1487 1481 1480 1479 1477 1473 1473 1469 1464 1463 1463 1461 1459 1457 1457 1458 1461 1466 1469 1471 1474 1477 1482 1488 1489 1491 1496 1501 1504 1507 1510 1514 1519 1522
1453 1460 1461 1457 1463 1469 1471 1467 1470 1484 1484 1486 1485 1483 1482 1479 1475 1472 1470 1467 1463 1461 1459 1458 1458 1458 1459 1463 1468 1470 1472 1476 1480 1485 1487 1488 1492 1498 1502 1505 1507 1512 1517 1518
1463 1457 1462 1465 1478 1481 1481 1483 1486 1487 1488 1489 1489 1487 1485 1482 1478 1474 1471 1469 1466 1462 1460 1459 1458 1459 1461 1463 1467 1470 1473 1474 1478 1481 1485 1486 1489 1494 1497 1501 1504 1509 1512 1516
1462 1469 1463 1468 1478 1481 1486 1489 1491 1491 1492 1493 1492 1490 1487 1484 1480 1477 1474 1471 1468 1465 1462 1460 1458 1458 1461 1463 1465 1469 1472 1474 1477 1480 1484 1485 1487 1491 1494 1497 1501 1506 1508 1511
1470 1471 1471 1472 1481 1485 1486 1490 1493 1493 1494 1494 1492 1491 1488 1485 1482 1479 1475 1473 1469 1467 1464 1462 1459 1458 1459 1462 1464 1467 1470 1472 1475 1480 1483 1484 1486 1487 1491 1493 1496 1499 1502 1503
1479 1487 1481 1485 1494 1495 1493 1495 1495 1494 1495 1493 1491 1490 1487 1485 1482 1479 1477 1474 1470 1467 1465 1462 1460 1459 1459 1460 1461 1464 1467 1468 1470 1474 1480 1483 1484 1484 1487 1489 1492 1493 1496 1497